Reflectivity
-20 -20 -20 -20 -20 -20 -20 -20 -20 -20 -20 -20 -20 -20 -20 -20 -20 -20 -20 -20 -20 -14 -20 -20 -20 -20 -20 -20 -20 -1 -20 -20 -20 -20 -20 -7 -20 9 -20 -11 -20 3 -20 -20
-20 -20 -20 -20 -20 -20 -20 -20 -20 -20 -20 -20 -20 -20 -20 -20 -20 -20 -20 -20 -20 -20 -20 -20 -20 -20 -20 -20 -10 -20 -20 -9 -20 -20 -12 -15 4 -20 -20 -20 -20 -20 -20 -20
-20 -20 -20 -20 -20 -20 -20 -20 -20 -20 -20 -20 -19 -18 -20 -20 -20 -20 -20 -20 -20 -20 -20 -20 -20 -20 -20 -20 -20 -20 -20 -20 -16 12 10 2 -20 -20 -20 -20 -20 -20 -20 -20
-20 -20 -20 -20 -20 -20 -20 -20 -13 -20 -20 -20 -20 -20 -20 -20 -20 -20 -20 -20 -20 -20 -20 -20 -20 -20 -20 -20 -20 -20 -20 -20 -20 -19 -20 -20 -20 -20 -20 -20 -20 -20 -20 -20
-20 -20 -20 -20 -20 -20 -20 -20 -20 -14 -20 -20 -20 -20 -20 -20 -20 -20 -20 -20 -20 -20 -20 -20 -20 -20 -20 -20 -20 -20 -20 -20 -20 -20 -20 -20 -20 -20 -20 -20 -20 -20 -20 -20
-20 -20 -20 -20 -20 -20 -20 -20 -20 -20 -20 -20 -20 -20 -20 -20 -19 -13 -20 -20 -20 -20 -20 -20 -20 -20 -20 -20 -20 -20 -20 -20 -20 -20 -20 -20 -20 -20 -20 -20 -20 -20 -20 -20
-20 -20 -20 -20 -20 -20 -20 -20 -20 -1 -2 -20 -20 -20 -20 -15 -20 -20 -20 -20 -20 -20 -20 -20 -20 -20 -20 -20 -20 -20 -20 -20 -20 -20 -20 -20 -20 -20 -20 -20 -20 -20 -20 -20
-20 -20 -20 -20 -20 -20 -20 -20 -20 -20 -20 -20 -20 -20 -20 -20 -20 -20 -20 -20 -20 -20 -19 -20 -20 -20 -20 -20 -20 -20 -20 -20 -20 -20 -20 -20 -20 -20 -20 -20 -20 -20 -20 -20
-20 -20 -20 -20 -20 -20 -14 5 -20 -12 -15 -19 -20 -20 -20 -20 -20 -20 -20 -20 -20 -20 -20 -20 -20 -20 -20 -20 -20 -20 -20 -20 -20 -20 -20 -20 -20 -20 -20 -20 -20 -20 -20 -20
-20 -20 -20 -20 -20 -20 -7 12 -5 5 7 2 -7 -20 -20 -20 -20 -20 -20 -20 -20 -20 -20 -20 -20 -20 -20 -20 -20 -20 -20 -20 -20 -20 -20 -20 -20 -20 -20 -20 -20 -20 -20 -20
-20 -20 -20 -20 -20 -20 -20 -13 10 -20 -17 -18 -20 -20 -20 -20 -20 -20 -20 -20 -20 -20 -20 -20 -20 -20 -20 -20 -20 -20 -20 -20 -20 -20 -20 -20 -20 -20 -20 -20 -20 -20 -20 -20
-20 -11 -20 -20 -20 -20 -20 -20 -16 14 10 -12 -20 -20 -20 -20 -20 -20 -20 -20 -20 -20 -20 -20 -20 -20 -20 -20 -20 -20 -20 -20 -20 -20 -20 -20 -20 -20 -20 -20 -20 -20 -20 -20
-20 -2 7 7 0 17 15 -4 -10 17 8 -7 -12 -20 -20 -20 -20 -20 -20 -20 -20 -20 -20 -20 -20 -20 -20 -20 -20 -20 -20 -20 -20 -20 -20 -20 -20 -20 -20 -20 -20 -20 -20 -20
-20 -20 -1 -12 -4 -14 6 11 2 24 17 -20 -20 -20 -20 -20 -20 -20 -20 -20 -20 -20 -20 -20 -20 -20 -20 -20 -20 -20 -20 -20 -20 -20 -20 -20 -20 -20 -20 -20 -20 -20 -20 -17
17 15 -20 -20 -20 -20 -20 -5 10 22 11 9 -20 -20 -20 -20 -20 -20 -20 -20 -20 -20 -20 -20 -20 -20 4 -13 -20 -20 -20 -20 -20 -20 -20 -20 -20 -20 -20 -20 -20 -20 -19 -13
20 36 11 -20 -20 -20 -11 7 10 5 6 -2 -20 -20 -20 -20 -20 -20 -20 -20 -20 -20 -20 -20 -10 -18 -20 -13 -20 -20 -20 -20 -20 -20 -20 -20 -20 -20 -20 -20 -3 -20 -20 -20
27 33 29 20 -13 4 15 24 5 10 -19 -16 2 -20 -16 -17 -15 -20 -20 -20 -20 -20 -15 10 20 11 5 -14 -20 -20 -20 -20 -20 -20 -20 -20 -20 -20 -20 -20 1 -20 -13 2
23 37 12 17 -1 10 28 7 -14 -20 -20 -20 -20 -20 -20 -20 -20 -4 -20 -20 -20 0 15 8 13 6 -7 -18 -20 -20 -20 -20 -20 -20 -20 -20 -20 -20 -20 -20 -20 -18 -20 4
29 39 24 29 25 21 -17 -20 -10 3 -17 -9 2 -7 -2 -12 6 8 -20 -16 17 28 26 11 24 8 1 -20 -10 -20 -20 -20 -20 -20 -20 -20 -20 -20 -20 -20 -20 -20 -20 -20
29 34 12 8 7 16 -17 -20 -17 12 26 -20 -20 -8 15 14 15 -17 -5 21 30 32 29 -1 -16 -4 -20 8 -14 -14 -20 -20 -20 -20 -20 -20 -20 -20 -20 -15 -20 -20 -19 -20
27 29 15 5 15 25 -12 -20 -20 17 11 1 24 6 18 16 -7 8 34 36 25 16 17 15 8 -12 5 9 -17 -20 -20 -20 -20 -20 -20 -20 -20 -20 -20 -20 -20 -20 -20 -20
25 24 31 31 16 -0 -17 -20 -20 -3 20 11 6 9 14 7 -16 -11 7 10 4 10 7 -7 -17 -1 12 -19 -20 -20 -20 -20 -20 -20 -20 -20 -20 -20 -20 -18 -20 -20 -15 -20
16 26 38 28 18 -11 -20 -20 -6 14 11 0 -11 -20 -1 3 -20 3 -12 -15 -20 -20 -16 -0 22 6 -20 -20 -20 -20 -20 -20 -18 -20 -20 -20 -9 -20 -20 -20 -20 -20 -18 -20
-12 14 27 20 13 -17 -20 -20 -18 9 1 -18 -18 -20 -20 -9 -6 -18 -20 -2 -15 4 -1 23 5 -18 -20 -20 -20 -20 -20 -20 -20 -20 -20 -20 -18 -17 -19 -20 -20 -3 1 -17
-18 -17 -20 -17 -20 -20 -20 -20 -18 -6 -20 -18 -20 -19 -3 -7 -20 -20 -20 -14 22 30 10 -17 -20 -20 -20 -20 -20 -20 -18 -20 -20 -20 -20 -20 -20 -20 -9 -20 2 -20 -20 -7
-18 -9 13 26 13 22 21 21 5 -20 11 9 -20 -20 -3 -20 -20 -19 -8 14 -8 -20 -20 -20 -20 -20 -20 -20 -20 -20 -20 -20 -20 -8 -20 -9 -20 -20 -17 -10 2 1 -12 1
Wind_Speed
6 9 20 23 19 14 9 18 17 7 7 4 11 15 16 15 11 12 8 8 8 8 2 2 3 4 7 9 11 10 11 10 8 6 5 4 4 5 4 4 5 4 3 2
7 24 22 13 12 15 16 19 18 8 9 4 11 21 16 16 18 16 16 13 12 9 7 5 5 5 7 10 13 11 10 9 7 5 3 3 5 4 5 4 7 7 7 5
26 28 16 19 16 19 21 23 17 13 4 9 8 29 22 19 17 15 13 11 13 14 13 10 10 10 10 11 13 13 13 12 9 8 7 6 5 4 3 5 3 5 5 4
17 24 14 20 26 20 23 17 14 13 7 12 3 21 16 5 13 10 14 12 14 16 13 13 13 12 11 10 12 14 14 14 10 9 9 9 5 4 3 2 1 3 4 6
23 19 24 16 26 20 19 13 16 14 15 12 24 13 9 12 21 17 15 17 15 17 18 16 13 12 10 9 11 11 12 12 11 11 10 7 7 5 3 1 4 5 5 6
29 12 18 31 21 20 10 2 5 5 8 13 22 16 24 18 18 11 13 14 15 17 18 17 14 12 10 8 10 11 13 11 10 11 10 9 7 4 2 1 3 4 5 6
23 23 10 12 19 17 21 15 7 8 9 14 12 15 29 2 12 19 17 15 15 18 20 20 18 15 14 13 12 11 14 12 10 10 8 6 5 4 1 2 3 6 6 7
19 15 27 18 26 21 25 21 9 18 13 16 9 18 19 3 6 10 7 11 16 19 19 19 18 16 15 14 13 13 13 13 9 7 6 5 4 1 2 3 5 6 7 9
19 22 9 25 15 22 21 21 28 4 1 5 13 24 16 6 6 7 9 14 19 21 21 21 18 16 16 14 13 13 12 11 7 5 4 3 2 2 4 7 8 8 10 10
14 15 18 18 21 18 14 26 12 13 15 20 16 21 19 10 16 14 14 17 18 20 21 20 18 17 14 13 11 10 10 9 6 5 2 1 3 4 6 8 10 12 12 12
25 13 7 19 19 28 19 20 13 10 9 13 19 19 9 17 18 18 20 17 19 21 20 19 17 15 13 12 11 11 9 8 6 4 1 2 4 6 8 9 10 11 13 13
34 13 21 20 21 28 28 24 24 10 18 14 12 24 5 11 17 16 15 17 18 20 21 20 17 15 13 12 11 10 8 6 4 2 1 3 5 8 9 10 11 11 12 12
22 16 11 24 11 2 28 26 23 25 0 21 14 27 1 2 7 11 16 17 18 19 21 19 16 15 13 12 10 8 6 5 4 2 3 5 7 8 9 10 10 12 13 14
18 22 30 23 33 20 18 30 29 26 16 20 19 35 6 6 9 10 12 16 19 19 19 17 16 15 14 11 9 6 5 4 3 1 4 6 8 8 9 10 11 12 13 14
26 27 29 35 28 18 24 27 32 30 27 23 32 26 21 15 14 17 17 16 18 19 19 17 16 13 13 11 9 6 5 4 2 2 4 6 7 8 9 10 11 10 10 12
16 13 27 29 25 26 22 22 30 32 33 28 33 27 12 12 15 15 18 20 22 21 18 16 15 15 13 11 9 7 5 4 2 2 4 5 6 8 9 10 11 10 10 10
22 14 12 27 28 21 26 38 30 26 29 28 31 42 7 9 16 19 20 21 22 20 18 16 15 14 12 11 9 8 6 4 1 3 2 3 7 5 8 10 10 10 10 10
22 25 11 8 13 23 27 18 33 26 20 27 30 24 17 16 21 20 20 23 20 20 19 16 14 12 11 9 8 8 5 3 1 3 4 5 6 5 5 6 7 7 7 8
29 20 7 8 9 1 10 13 29 25 37 29 21 18 7 10 9 11 16 19 21 20 18 18 14 13 10 10 9 7 5 4 3 3 5 6 6 5 6 7 8 7 6 6
23 22 13 5 7 9 2 7 15 19 28 25 27 21 14 18 10 11 14 13 14 18 18 18 15 12 12 10 9 8 6 4 0 4 5 6 6 7 7 6 7 5 5 7
9 11 20 9 4 5 8 9 16 10 7 16 19 21 16 12 16 12 20 16 20 20 16 14 15 12 12 11 10 8 5 2 2 3 4 5 5 7 6 6 5 4 6 6
5 4 5 5 4 12 12 12 18 8 2 4 13 20 22 27 6 9 20 22 22 22 20 15 13 10 11 10 9 7 4 4 2 3 2 3 4 4 4 5 4 4 5 5
5 4 2 6 7 2 18 1 4 3 7 5 5 4 7 11 6 15 18 19 19 22 16 12 13 12 9 9 8 7 3 4 2 1 2 3 2 3 3 3 4 4 3 4
5 2 4 4 8 5 11 2 3 3 3 4 6 9 13 13 16 15 16 17 17 14 15 14 15 13 9 6 7 6 4 2 1 2 2 2 1 2 2 3 3 3 2 3
1 2 2 6 4 4 2 2 2 2 4 9 9 10 13 17 16 18 16 15 14 14 14 13 13 12 11 9 6 4 4 3 2 2 2 1 0 2 3 3 3 1 3 3
7 7 5 6 5 3 4 9 6 5 6 10 15 13 11 17 16 17 16 14 14 14 13 12 12 13 12 10 9 7 6 5 3 2 0 1 1 2 2 1 2 8 8 8
Wind_Direction
174 205 218 211 213 235 233 231 240 226 240 260 246 252 250 265 271 270 251 232 210 213 184 115 104 133 124 129 138 141 138 144 144 142 135 126 127 124 110 92 85 76 54 43
187 224 220 221 200 217 228 240 240 271 240 260 272 267 262 255 258 259 253 214 206 195 179 153 138 155 158 140 136 131 123 121 117 115 102 104 131 107 94 80 70 61 52 38
202 226 205 205 201 211 225 228 232 242 320 268 298 281 262 252 243 230 222 219 202 197 176 158 149 139 138 135 132 129 123 118 105 105 115 111 114 100 75 47 52 29 19 11
227 237 222 205 216 205 233 218 233 227 245 254 191 276 265 260 239 227 226 203 199 183 173 162 151 140 131 120 119 121 117 112 107 109 94 89 89 94 66 58 360 337 347 337
221 216 214 215 219 205 241 205 216 219 230 267 245 271 254 243 239 231 222 209 201 186 174 165 155 144 130 135 125 117 107 99 98 98 102 103 102 96 106 359 330 329 323 317
234 215 213 221 220 210 205 232 191 195 206 241 242 229 263 229 233 229 222 207 195 181 171 165 161 152 141 142 132 126 115 107 106 100 97 102 119 143 169 240 296 306 307 304
230 233 227 206 213 197 194 181 183 205 201 244 173 213 251 284 227 224 214 195 181 179 173 169 168 164 152 153 145 134 124 118 115 111 114 123 134 155 208 286 284 289 288 284
217 221 207 204 211 196 197 194 201 218 223 252 176 232 244 241 218 196 207 186 169 174 176 173 169 163 159 157 154 140 134 131 130 128 134 144 145 165 246 274 292 291 293 293
207 233 192 197 203 191 197 204 221 279 25 263 219 251 271 191 226 214 194 167 179 179 176 172 169 167 163 163 156 145 140 135 134 126 136 175 188 307 305 303 301 301 298 300
204 237 205 191 196 211 196 201 197 220 221 231 240 248 242 188 202 199 197 196 183 175 173 172 171 170 166 158 150 146 140 141 136 139 173 358 336 309 301 296 296 304 303 302
227 239 203 168 188 193 198 198 210 207 218 219 246 248 230 201 201 197 205 189 176 177 172 169 169 168 161 154 154 150 148 146 147 150 98 316 311 313 309 307 310 310 308 311
218 226 237 217 211 201 201 200 204 199 207 227 258 259 152 210 200 200 189 185 181 177 170 168 165 162 159 164 162 163 155 151 146 138 275 312 320 321 319 316 311 311 306 302
205 221 238 231 248 327 218 213 205 213 85 214 207 253 149 190 183 189 178 176 174 169 168 168 167 165 166 169 166 163 163 158 159 147 352 334 322 313 308 304 302 310 309 307
207 222 218 221 214 199 208 216 219 212 219 225 217 251 175 191 201 190 184 173 173 172 167 168 169 170 169 168 166 162 161 168 145 47 340 312 309 314 310 313 319 313 311 310
206 222 219 234 239 200 210 214 217 219 219 219 234 238 238 193 193 196 178 170 172 171 174 177 169 168 167 166 164 165 155 155 110 338 317 308 315 316 324 318 312 306 305 304
194 227 226 241 234 234 237 230 225 225 228 227 240 247 262 187 192 174 177 179 181 177 174 172 166 165 169 170 171 163 158 143 135 288 308 314 327 317 311 311 313 316 311 307
273 204 192 229 221 222 232 232 233 244 240 233 235 238 213 185 184 182 187 187 178 170 168 165 171 170 172 174 166 164 152 138 135 300 266 301 303 278 308 322 321 316 311 317
249 208 199 230 193 222 240 227 223 233 244 238 248 243 225 207 194 193 188 175 173 168 167 164 168 174 171 153 144 127 137 137 224 272 291 305 319 295 299 303 305 302 301 321
234 204 189 199 205 319 230 204 200 204 237 235 244 240 207 136 134 209 188 184 175 170 166 156 170 167 149 153 136 143 157 175 214 287 324 327 311 316 312 315 312 309 311 327
228 202 194 157 208 225 303 181 196 202 248 231 228 229 152 142 180 204 183 178 163 164 169 157 150 147 137 152 151 161 169 172 321 342 320 309 330 323 313 309 306 297 311 330
201 191 193 175 170 249 242 155 129 160 254 207 211 227 153 188 216 190 166 179 172 155 145 141 141 146 157 158 160 156 141 97 16 302 297 325 327 313 306 298 287 310 333 333
193 132 194 169 151 242 165 167 164 166 162 209 190 199 199 211 167 165 164 162 155 151 145 143 140 135 155 157 156 135 127 132 211 242 292 297 298 303 294 290 304 326 326 336
246 196 203 200 213 275 180 315 148 110 145 205 201 131 121 114 125 152 154 148 149 145 140 141 139 148 147 153 141 137 158 147 196 248 252 257 281 290 285 311 345 327 338 353
217 172 232 212 188 186 186 20 89 132 171 241 139 121 133 125 139 138 138 137 142 142 138 155 149 148 150 143 137 139 126 126 196 243 253 238 300 333 325 27 341 333 4 13
127 135 129 284 288 356 309 133 147 107 118 106 102 119 129 129 138 139 137 137 140 149 146 151 156 153 146 150 144 126 127 155 193 222 252 269 348 341 8 43 349 6 41 25
177 171 186 223 226 193 190 165 136 118 114 135 120 107 127 137 139 137 139 146 144 144 147 143 140 137 142 144 150 159 159 172 143 171 283 1 16 14 12 121 128 61 72 53